Vertical_Velocity
-1 -1 -0 -1 -2 -0 -0 -1 2 0 1 -0 1 1 2 2 3 0 1 1 1 -4
-0 -0 -1 1 2 2 2 -0 -2 -1 -4 -1 -2 1 1 -0 -1 -2 -1 3 2 -1
2 1 1 4 -1 2 1 1 1 2 2 1 1 5 2 1 -0 0 1 -3 1 1
-2 1 4 2 -0 0 2 0 3 2 1 3 5 7 4 6 4 3 6 6 9 4
4 -0 -2 -1 1 3 1 4 3 4 3 5 7 4 2 3 3 0 3 4 1 1
3 -0 -2 1 -2 1 6 2 2 2 3 4 5 7 4 5 4 1 0 1 2 1
2 0 -0 1 -0 -2 5 -0 3 4 3 2 3 4 4 3 1 2 0 1 1 -1
-1 2 -0 0 -2 -1 2 -2 2 6 2 1 2 2 5 7 6 4 3 0 -0 -0
1 0 -4 -1 -2 0 0 1 2 -2 -2 -0 -5 6 1 3 -0 4 1 1 -1 4
1 -0 -2 -1 -1 -4 -3 -1 -4 -2 -1 -4 -1 0 -1 3 -4 -3 -0 6 6 3
1 -1 1 -1 -5 -2 -4 -5 -3 -4 -2 -1 -2 2 1 3 -1 -7 -5 -5 0 5
0 -1 1 -2 -2 -1 1 -0 -3 -1 -2 -3 -2 2 5 4 3 2 3 5 -4 1
1 -1 -2 -1 -2 -1 1 0 5 2 -1 2 -1 1 -1 -1 -2 1 3 -2 1 1
1 -0 -0 0 -1 0 2 2 -0 -3 -3 -2 -2 -2 -2 -2 -3 -4 -0 -2 -3 -3
Height
1454 1449 1444 1439 1433 1428 1422 1416 1412 1408 1405 1402 1400 1398 1398 1396 1397 1399 1401 1404 1408 1413
1452 1447 1442 1436 1431 1425 1420 1414 1408 1403 1398 1395 1392 1391 1390 1390 1391 1392 1394 1398 1400 1405
1452 1447 1441 1435 1430 1424 1419 1412 1406 1400 1394 1390 1388 1386 1383 1385 1387 1389 1390 1392 1396 1399
1454 1448 1442 1436 1430 1425 1419 1412 1406 1399 1393 1389 1387 1384 1383 1383 1384 1387 1389 1391 1390 1394
1458 1452 1445 1438 1432 1426 1420 1414 1406 1400 1395 1390 1386 1383 1382 1382 1382 1383 1384 1384 1385 1386
1462 1456 1450 1443 1436 1429 1423 1416 1410 1403 1397 1392 1389 1386 1384 1383 1381 1381 1382 1383 1383 1383
1464 1459 1454 1448 1442 1435 1428 1420 1414 1408 1403 1398 1394 1391 1389 1388 1386 1385 1384 1383 1382 1383
1468 1464 1459 1454 1447 1441 1434 1429 1422 1416 1410 1406 1401 1399 1396 1394 1392 1391 1389 1387 1386 1386
1473 1469 1463 1459 1454 1447 1441 1436 1430 1424 1420 1416 1412 1411 1408 1403 1398 1396 1394 1393 1394 1394
1476 1472 1467 1463 1459 1453 1447 1443 1437 1432 1429 1425 1424 1422 1418 1414 1409 1405 1402 1402 1400 1399
1480 1476 1472 1467 1463 1459 1454 1450 1445 1441 1437 1435 1432 1431 1427 1422 1418 1415 1412 1410 1406 1402
1483 1480 1476 1472 1468 1464 1461 1457 1453 1449 1445 1441 1439 1437 1434 1429 1426 1422 1418 1415 1414 1412
1485 1482 1479 1476 1472 1469 1466 1462 1459 1455 1451 1449 1445 1442 1438 1435 1430 1426 1422 1420 1416 1414
1487 1484 1482 1479 1476 1474 1471 1468 1464 1461 1458 1455 1452 1449 1445 1440 1435 1432 1430 1425 1422 1420